JG6YPS-13 Weather Reports


time (UTC)temp
C
wind
direction
speed
KPH
gust
KPH
rain 1hr
cm
rain 24hr
cm
rain mn
cm
humidity
%
barometer
mb
20260504081834 17 270 6.4 14.5 0.00 1.12 0.00 44 1014.4
20260504080834 17 315 1.6 11.3 0.00 1.45 0.00 46 1014.5
20260504045843 20 315 6.4 17.7 0.00 4.57 0.00 42 1013.9
20260504044844 20 315 8.0 19.3 0.00 4.67 0.00 42 1013.9
20260504043844 20 315 6.4 12.9 0.00 4.85 0.00 44 1014.0
20260504042844 20 270 6.4 14.5 0.00 4.93 0.00 42 1014.0
20260504041845 20 270 4.8 17.7 0.00 5.03 0.00 44 1014.0
20260504040845 20 338 4.8 19.3 0.00 5.05 0.00 42 1014.0
20260504035846 20 293 9.7 22.5 0.00 5.08 0.00 40 1014.0
20260504034846 21 293 6.4 24.1 0.00 5.08 0.00 40 1013.8
20260504033846 21 270 4.8 17.7 0.00 5.18 0.00 46 1013.7
20260504032847 22 315 9.7 17.7 0.00 5.23 0.00 43 1013.7
20260504031847 22 0 4.8 16.1 0.00 5.23 0.00 46 1013.7
20260504030847 22 225 4.8 12.9 0.00 5.23 0.00 48 1013.3
20260504025847 23 315 1.6 8.0 0.00 5.23 0.00 49 1013.4
20260504024847 23 270 4.8 12.9 0.00 5.26 0.00 44 1013.4
20260504023847 23 180 3.2 8.0 0.00 5.26 0.00 53 1013.4
20260504022847 22 90 4.8 12.9 0.00 5.26 0.00 51 1013.4
20260504021847 22 45 3.2 17.7 0.00 5.26 0.00 51 1013.4
20260504020847 22 270 3.2 12.9 0.00 5.26 0.00 53 1013.4
20260504015847 22 270 1.6 8.0 0.00 5.26 0.00 53 1013.4
20260504014847 23 225 3.2 11.3 0.00 5.26 0.00 52 1013.7
20260504013847 22 270 1.6 9.7 0.00 5.26 0.00 54 1013.6
20260504012847 22 225 3.2 12.9 0.00 5.26 0.00 57 1013.6
20260504011847 22 180 3.2 12.9 0.00 5.26 0.00 55 1013.6
20260504010848 22 225 6.4 16.1 0.00 5.26 0.00 53 1013.6
20260504005848 22 180 3.2 17.7 0.00 5.31 0.00 55 1013.5
20260504004848 22 180 6.4 19.3 0.00 5.31 0.00 53 1013.4
20260504003849 21 270 3.2 8.0 0.00 5.31 0.00 55 1013.4
20260504002849 20 135 1.6 19.3 0.00 5.31 0.00 56 1013.3
20260504001849 21 90 3.2 12.9 0.00 5.33 0.00 57 1013.0
20260504000850 20 180 3.2 12.9 0.00 5.33 0.00 62 1013.3
20260503235850 20 270 3.2 11.3 0.00 5.33 0.00 63 1013.2
20260503234850 20 315 3.2 16.1 0.00 5.36 0.00 61 1012.9
20260503233850 18 225 0.0 12.9 0.00 5.38 0.00 67 1012.8
20260503232851 19 270 3.2 14.5 0.00 5.41 0.00 65 1012.4
20260503231851 20 270 3.2 12.9 0.00 5.44 0.00 65 1012.2
20260503230851 20 270 1.6 8.0 0.00 5.49 0.00 65 1011.9
20260503225851 20 135 1.6 4.8 0.00 5.49 0.00 68 1011.9
20260503224851 18 270 3.2 11.3 0.00 5.49 0.00 66 1011.8
20260503223852 18 270 1.6 8.0 0.00 5.49 0.00 71 1011.7
20260503222852 18 90 3.2 9.7 0.00 5.49 0.00 71 1011.6
20260503221853 18 180 3.2 9.7 0.00 5.49 0.00 72 1011.2
20260503220853 18 315 0.0 8.0 0.00 5.49 0.00 73 1011.1
20260503215853 18 135 3.2 8.0 0.00 5.49 0.00 75 1010.8
20260503214854 17 225 3.2 8.0 0.00 5.49 0.00 78 1010.7
20260503213855 16 315 0.0 3.2 0.00 5.49 0.00 83 1010.6
20260503212855 15 203 0.0 3.2 0.00 5.49 0.00 83 1010.6
20260503211856 16 45 1.6 4.8 0.00 5.49 0.00 83 1010.3
20260503210857 15 0 1.6 8.0 0.00 5.49 0.00 86 1010.0
20260503205858 14 225 3.2 11.3 0.00 5.49 0.00 86 1009.6
20260503204859 14 315 1.6 8.0 0.00 5.49 0.00 86 1009.8
20260503203859 15 270 0.0 4.8 0.00 5.49 0.00 86 1009.9
20260503202900 15 180 0.0 3.2 0.00 5.49 0.00 86 1009.7
20260503201901 15 135 0.0 3.2 0.00 5.49 0.00 85 1009.6
20260503200901 15 225 0.0 3.2 0.00 5.49 0.00 86 1009.6
20260503195902 15 180 1.6 8.0 0.00 5.49 0.00 86 1009.5
20260503194903 15 135 1.6 3.2 0.00 5.49 0.00 87 1009.2
20260503193904 15 180 0.0 6.4 0.00 5.49 0.00 86 1008.9
20260503192904 15 315 1.6 4.8 0.00 5.49 0.00 86 1008.7
20260503191905 15 180 1.6 6.4 0.00 5.49 0.00 87 1008.4
20260503190906 15 293 3.2 6.4 0.00 5.49 0.00 87 1008.3
20260503185906 15 180 1.6 3.2 0.00 5.49 0.00 87 1008.6
20260503184907 15 225 0.0 6.4 0.00 5.49 0.00 88 1008.6
20260503183908 15 45 0.0 4.8 0.00 5.49 0.00 87 1008.6
20260503182908 15 180 3.2 6.4 0.00 5.49 0.00 86 1008.5
20260503181909 15 135 3.2 9.7 0.00 5.49 0.00 85 1008.6
20260503180910 15 203 1.6 8.0 0.00 5.49 0.00 85 1008.4
20260503175910 15 225 3.2 8.0 0.00 5.49 0.00 86 1008.3
20260503174911 15 180 3.2 8.0 0.00 5.49 0.00 85 1008.5
20260503173912 15 225 1.6 8.0 0.00 5.49 0.00 85 1008.7
20260503172912 15 180 3.2 6.4 0.00 5.49 0.00 85 1008.6
20260503171913 15 225 3.2 11.3 0.00 5.49 0.00 84 1008.6
20260503170913 15 225 3.2 8.0 0.00 5.49 0.00 84 1008.5
20260503150919 16 180 1.6 9.7 0.00 5.49 0.00 88 1008.3
20260503130925 16 180 3.2 9.7 0.00 5.49 0.00 88 1007.7